Location: Azul
(36.7830°S, 59.8500°W)
Time: 02:54:23
(UTC-03:00)

HuskySat-1 - Pass Details

Date: 26 October 2021
Orbit: 443 x 456 km, 51.6° (Epoch: 04 December)

Event Time Altitude Azimuth Distance (km) Brightness Sun altitude
Rises 21:37:02 0° 287° (WNW) 2,489 ? -23.9°
Reaches altitude 10° 21:39:21 10° 275° (W) 1,619 ? -24.2°
Maximum altitude 21:42:37 30° 212° (SSW) 865 ? -24.7°
Enters shadow 21:44:47 17° 160° (SSE) 1,260 ? -25.0°
